Regional Weather Roundup
Issued by NWS Upton, NY

Current Version | Previous Version | Graphics & Text | Print | Product List | Glossary Off
Versions: 1 2 3 4 5 6 7 8 9 10 11 12 13 14 15 16 17 18 19 20 21 22 23 24 25 26 27 28 29 30 31 32 33 34 35 36 37 38 39 40 41 42 43 44 45 46 47 48 49 50
000 ASUS41 KOKX 290107 RWROKX REGIONAL WEATHER ROUNDUP NATIONAL WEATHER SERVICE NEW YORK NY 900 PM EDT SAT MAR 28 2015 NOTE: "FAIR" INDICATES FEW OR NO CLOUDS BELOW 12,000 FEET WITH NO SIGNIFICANT WEATHER AND/OR OBSTRUCTIONS TO VISIBILITY. NYZ071-072-176-178-NJZ106-104-290200- NEW YORK CITY METRO AREA CITY SKY/WX TMP DP RH WIND PRES REMARKS CENTRAL PARK CLOUDY 31 18 58 NW10G21 30.06R WCI 22 LAGUARDIA APRT MOCLDY 32 21 64 NW18G24 30.04R WCI 20 KENNEDY INTL MOCLDY 33 20 58 NW18 30.04R WCI 22 NEWARK/LIBERTY MOCLDY 32 11 41 NW16G26 30.05R WCI 21 BRNX BOT. GARD N/A N/A N/A N/A N18 30.04S TETERBORO CLOUDY 31 19 61 NW15G21 30.04R WCI 20 $$ NYZ177-179-078>081-290200- LONG ISLAND NEW YORK CITY SKY/WX TMP DP RH WIND PRES REMARKS FARMINGDALE LGT SNOW 30 26 85 NW13 30.03R FOG WCI 20 ISLIP LGT SNOW 30 26 85 NW12 29.99R FOG WCI 20 SHIRLEY LGT SNOW 30 26 85 NW13 30.01R FOG WCI 20 WESTHAMPTON LGT SNOW 30 26 85 NW10 30.00R VSB 1 WCI 21 MONTAUK POINT N/A 33 31 92 NW9 29.97R WCI 25 $$ NYZ052-065-067-290200- HUDSON VALLEY CITY SKY/WX TMP DP RH WIND PRES REMARKS WHITE PLAINS LGT SNOW 27 22 81 NW12 30.01R VSB 1 WCI 17 NEWBURGH LGT SNOW 28 21 74 NW16 30.04 FOG WCI 17 MONTGOMERY CLOUDY 28 12 51 NW13 30.04R WCI 17 POUGHKEEPSIE CLOUDY 30 19 63 N9 30.05R WCI 22 ALBANY LGT SNOW 28 14 55 NW17 30.08R WCI 16 $$ NJZ001-105-106-008-010-013-015-019>022-104-290200- NEW JERSEY CITY SKY/WX TMP DP RH WIND PRES REMARKS NEWARK/LIBERTY MOCLDY 32 11 41 NW16G26 30.05R WCI 21 TETERBORO CLOUDY 31 19 61 NW15G21 30.04R WCI 20 CALDWELL CLOUDY 30 10 43 NW14G21 30.06R WCI 19 MORRISTOWN NOT AVBL SOMERVILLE CLOUDY 29 8 41 NW15G21 30.07R WCI 18 SUSSEX CLOUDY 26 10 50 NW8G21 30.07R WCI 18 ANDOVER N/A 25 9 50 NW8G17 30.07R WCI 16 TRENTON CLEAR 29 9 43 NW14G21 30.07R WCI 18 MILLVILLE PTCLDY 30 19 63 NW18 30.10R WCI 18 ATLANTIC CITY CLOUDY 33 13 43 NW14G25 30.07R WCI 23 WRIGHTSTOWN CLEAR 29 13 50 NW13 30.06R WCI 19 TOMS RIVER PTCLDY 30 12 47 NW8 30.07R WCI 23 BELMAR MOCLDY 30 10 43 NW13G23 30.04R WCI 20 $$ PAZ047>061-062-071-290200- EASTERN PENNSYLVANIA CITY SKY/WX TMP DP RH WIND PRES REMARKS PHILADELPHIA PTCLDY 32 13 45 NW12G18 30.12R WCI 23 ALLENTOWN CLOUDY 27 6 41 NW17G28 30.11R WCI 14 SCRANTON CLOUDY 23 4 44 N17 30.11R WCI 9 $$ CTZ002-004>006-009-010-012-RIZ004-006-007-MAZ004-011-015-290200- SOUTHERN NEW ENGLAND IN CT CITY SKY/WX TMP DP RH WIND PRES REMARKS BRADLEY INTL LGT SNOW 30 22 72 NW13 29.99R WCI 20 HARTFORD LGT SNOW 30 24 78 N8 30.01R WCI 22 DANBURY CLOUDY 28 20 71 N8 30.02R HAZE WCI 20 WTRBRY/OXFORD CLOUDY 27 18 69 N13 29.99R WCI 16 BRIDGEPORT LGT SNOW 30 26 85 NW13 30.00R FOG WCI 20 MERIDEN LGT SNOW 30 26 85 NW8 30.01R FOG WCI 22 NEW HAVEN LGT SNOW 30 26 85 NW8 29.99R FOG WCI 22 CHESTER LGT SNOW 30 28 93 N14G21 29.96R WCI 20 GROTON LGT SNOW 33 32 96 N6 29.97R VSB 1 WCI 28 WILLIMANTIC LGT SNOW 31 28 89 NW6 29.98R FOG WCI 25 IN RI CITY SKY/WX TMP DP RH WIND PRES REMARKS PROVIDENCE LGT SNOW 33 31 92 CALM 29.96R VSB 1 BLOCK ISLAND CLOUDY 34 30 86 NE3 29.95R WESTERLY LGT SNOW 33 31 92 NW3 29.97R VSB 3/4 IN MA CITY SKY/WX TMP DP RH WIND PRES REMARKS BOSTON LGT SNOW 33 31 92 NW8 29.96R FOG WCI 26 WORCESTER LGT SNOW 28 24 85 NW12 29.91R FOG WCI 18 WESTFIELD CLOUDY 30 19 63 N14G20 29.99R WCI 19 PROVINCETOWN PTCLDY 34 28 80 NE10 29.94R WCI 26 NANTUCKET CLOUDY 35 30 82 N12 29.92R WCI 27 $$ ANZ330-335-338-340-345-350-353-355-290200- COASTAL MARINE OBSERVATIONS STATION/POSITION TIME SKY/WX TEMP WIND PRES VSBY WAVE AIR SEA DIR/SP/G HT/PER (UTC) (F) (DEG/KT/KT) (MB) (MI) (FT/S) NY HARB ENTRANCE 0050 36 38 330/ 19/ 23 1015.9 4/11 4S FIRE IS 0003 36 N/A 3/11 20S FIRE ISLAND 2350 38 1014.5 4/10 23SW MTP 0050 N/A 5/11 HUDSON CANYON NOT AVBL EXECUTION ROCKS NOT AVBL WESTERN LI SOUND NOT AVBL CENTRAL LI SOUND NOT AVBL EASTERN LI SOUND NOT AVBL ROBBINS REEF 0000 34 320/ 13/ 17 1014.8 $$ >>>>>>>>>>>>>>>>>>>>>>>>>>>> KEY <<<<<<<<<<<<<<<<<<<<<<<<<<< > < > SKY/WX - SKY CONDITION/PRESENT WEATHER < > TMP - TEMPERATURE IN FAHRENHEIT < > DP - DEWPOINT IN FAHRENHEIT < > RH - RELATIVE HUMIDITY IN PERCENT < > WIND - DIRECTION AND SPEED IN MPH < > PRES - MEAN SEA LEVEL PRESSURE IN INCHES OF HG < > WCI - WIND CHILL INDEX < > VSB - VISIBILITY IN MILES < > HX - HEAT INDEX < > TC - TEMPERATURE IN CELSIUS < > VRB - VARIABLE WIND DIRECTION < > < >>>>>>>>>>>>>>>>>>>>>>>>>>>> KEY <<<<<<<<<<<<<<<<<<<<<<<<<<<

USA.gov is the U.S. government's official web portal to all federal, state and local government web resources and services.